Time,TemperatureF,DewpointF,PressureIn,WindDirection,WindDirectionDegrees,WindSpeedMPH,WindSpeedGustMPH,Humidity,HourlyPrecipIn,Conditions,Clouds,dailyrainin,SolarRadiationWatts/m^2,SoftwareType,DateUTC
2013-02-28 00:00:00,44.3,39.5,29.62,WNW,285,0.0,0.0,83,0.00,,,0.39,0,Wunderground v.1.15,2013-02-28 05:00:00,
2013-02-28 00:06:00,44.2,39.4,29.61,WNW,285,0.0,1.0,83,0.00,,,0.00,0,Wunderground v.1.15,2013-02-28 05:06:00,
2013-02-28 00:12:00,44.2,39.4,29.62,WNW,285,0.0,0.0,83,0.00,,,0.00,0,Wunderground v.1.15,2013-02-28 05:12:00,
2013-02-28 00:17:00,44.2,39.4,29.62,WNW,285,0.0,0.0,83,0.00,,,0.00,0,Wunderground v.1.15,2013-02-28 05:17:00,
2013-02-28 00:23:00,44.1,39.3,29.62,WNW,285,0.0,0.0,83,0.00,,,0.00,0,Wunderground v.1.15,2013-02-28 05:23:00,
2013-02-28 00:28:00,44.1,39.6,29.61,WNW,285,0.0,0.0,84,0.00,,,0.00,0,Wunderground v.1.15,2013-02-28 05:28:00,
2013-02-28 00:34:00,44.1,39.6,29.61,WNW,285,0.0,0.0,84,0.00,,,0.00,0,Wunderground v.1.15,2013-02-28 05:34:00,
2013-02-28 00:39:00,44.1,39.6,29.61,WNW,285,0.0,0.0,84,0.00,,,0.00,0,Wunderground v.1.15,2013-02-28 05:39:00,
2013-02-28 00:45:00,44.1,39.6,29.61,WNW,285,0.0,0.0,84,0.00,,,0.00,0,Wunderground v.1.15,2013-02-28 05:45:00,
2013-02-28 00:51:00,44.0,39.5,29.61,WNW,285,0.0,0.0,84,0.00,,,0.00,0,Wunderground v.1.15,2013-02-28 05:51:00,
2013-02-28 00:57:00,44.0,39.5,29.61,WNW,285,0.0,0.0,84,0.00,,,0.00,0,Wunderground v.1.15,2013-02-28 05:57:00,
2013-02-28 01:02:00,43.9,39.4,29.61,WNW,285,0.0,0.0,84,0.00,,,0.00,0,Wunderground v.1.15,2013-02-28 06:02:00,
2013-02-28 01:08:00,43.9,39.4,29.61,WNW,285,0.0,0.0,84,0.00,,,0.00,0,Wunderground v.1.15,2013-02-28 06:08:00,
2013-02-28 01:14:00,43.8,39.3,29.61,WNW,285,0.0,0.0,84,0.00,,,0.00,0,Wunderground v.1.15,2013-02-28 06:14:00,
2013-02-28 01:20:00,43.8,39.3,29.61,WNW,285,0.0,0.0,84,0.00,,,0.00,0,Wunderground v.1.15,2013-02-28 06:20:00,
2013-02-28 01:25:00,43.8,39.3,29.61,WNW,285,0.0,0.0,84,0.00,,,0.00,0,Wunderground v.1.15,2013-02-28 06:25:00,
2013-02-28 01:30:00,43.7,39.2,29.61,WNW,285,0.0,0.0,84,0.00,,,0.00,0,Wunderground v.1.15,2013-02-28 06:30:00,
2013-02-28 01:36:00,43.7,39.2,29.61,WNW,285,0.0,0.0,84,0.00,,,0.00,0,Wunderground v.1.15,2013-02-28 06:36:00,
2013-02-28 01:42:00,43.6,39.1,29.61,WNW,285,0.0,0.0,84,0.00,,,0.00,0,Wunderground v.1.15,2013-02-28 06:42:00,
2013-02-28 01:47:00,43.6,39.1,29.60,WNW,285,0.0,0.0,84,0.00,,,0.00,0,Wunderground v.1.15,2013-02-28 06:47:00,
2013-02-28 01:53:00,43.5,39.3,29.60,WNW,285,0.0,0.0,85,0.00,,,0.00,0,Wunderground v.1.15,2013-02-28 06:53:00,
2013-02-28 01:59:00,43.5,39.3,29.60,WNW,285,0.0,0.0,85,0.00,,,0.00,0,Wunderground v.1.15,2013-02-28 06:59:00,
2013-02-28 02:04:00,43.4,39.2,29.60,WNW,285,0.0,0.0,85,0.00,,,0.00,0,Wunderground v.1.15,2013-02-28 07:04:00,
2013-02-28 02:09:00,43.4,39.2,29.60,WNW,285,0.0,0.0,85,0.00,,,0.00,0,Wunderground v.1.15,2013-02-28 07:09:00,
2013-02-28 02:14:00,43.4,39.2,29.60,WNW,285,0.0,0.0,85,0.00,,,0.00,0,Wunderground v.1.15,2013-02-28 07:14:00,
2013-02-28 02:19:00,43.3,39.1,29.60,WNW,285,0.0,1.0,85,0.00,,,0.00,0,Wunderground v.1.15,2013-02-28 07:19:00,
2013-02-28 02:24:00,43.3,39.1,29.60,WNW,285,0.0,0.0,85,0.00,,,0.00,0,Wunderground v.1.15,2013-02-28 07:24:00,
2013-02-28 02:29:00,43.3,39.1,29.60,WNW,285,0.0,0.0,85,0.00,,,0.00,0,Wunderground v.1.15,2013-02-28 07:29:00,
2013-02-28 02:34:00,43.2,39.0,29.60,WNW,285,0.0,0.0,85,0.00,,,0.00,0,Wunderground v.1.15,2013-02-28 07:34:00,
2013-02-28 02:39:00,43.2,39.0,29.60,WNW,285,0.0,0.0,85,0.00,,,0.00,0,Wunderground v.1.15,2013-02-28 07:39:00,
2013-02-28 02:44:00,43.2,39.0,29.60,WNW,285,0.0,0.0,85,0.00,,,0.00,0,Wunderground v.1.15,2013-02-28 07:44:00,
2013-02-28 02:49:00,43.2,39.0,29.60,WNW,285,0.0,1.0,85,0.00,,,0.00,0,Wunderground v.1.15,2013-02-28 07:49:00,
2013-02-28 02:54:00,43.2,39.0,29.60,WNW,285,0.0,1.0,85,0.00,,,0.00,0,Wunderground v.1.15,2013-02-28 07:54:00,
2013-02-28 02:59:00,43.2,39.0,29.60,WNW,285,0.0,2.0,85,0.00,,,0.00,0,Wunderground v.1.15,2013-02-28 07:59:00,
2013-02-28 03:04:00,43.2,39.3,29.60,WNW,285,0.0,0.0,86,0.00,,,0.00,0,Wunderground v.1.15,2013-02-28 08:04:00,
2013-02-28 03:10:00,43.2,39.3,29.60,WNW,285,0.0,0.0,86,0.00,,,0.00,0,Wunderground v.1.15,2013-02-28 08:10:00,
2013-02-28 03:15:00,43.1,39.2,29.60,WNW,285,0.0,0.0,86,0.00,,,0.00,0,Wunderground v.1.15,2013-02-28 08:15:00,
2013-02-28 03:20:00,43.1,39.2,29.60,WNW,285,0.0,0.0,86,0.00,,,0.00,0,Wunderground v.1.15,2013-02-28 08:20:00,
2013-02-28 03:25:00,43.1,39.2,29.60,WNW,285,0.0,0.0,86,0.00,,,0.00,0,Wunderground v.1.15,2013-02-28 08:25:00,
2013-02-28 03:30:00,43.1,39.2,29.60,WNW,285,0.0,0.0,86,0.00,,,0.00,0,Wunderground v.1.15,2013-02-28 08:30:00,
2013-02-28 03:35:00,43.1,39.2,29.60,WNW,285,0.0,2.0,86,0.00,,,0.00,0,Wunderground v.1.15,2013-02-28 08:35:00,
2013-02-28 03:40:00,43.1,39.2,29.60,WNW,285,0.0,0.0,86,0.00,,,0.00,0,Wunderground v.1.15,2013-02-28 08:40:00,
2013-02-28 03:45:00,43.1,39.2,29.60,WNW,285,1.0,2.0,86,0.00,,,0.00,0,Wunderground v.1.15,2013-02-28 08:45:00,
2013-02-28 03:50:00,43.1,39.2,29.60,WNW,285,1.0,2.0,86,0.00,,,0.00,0,Wunderground v.1.15,2013-02-28 08:50:00,
2013-02-28 03:55:00,43.1,39.2,29.60,WNW,285,0.0,2.0,86,0.00,,,0.00,0,Wunderground v.1.15,2013-02-28 08:55:00,
2013-02-28 04:00:00,43.1,39.2,29.60,WNW,285,0.0,0.0,86,0.00,,,0.00,0,Wunderground v.1.15,2013-02-28 09:00:00,
2013-02-28 04:05:00,43.1,39.2,29.59,WNW,285,0.0,0.0,86,0.00,,,0.00,0,Wunderground v.1.15,2013-02-28 09:05:00,
2013-02-28 04:10:00,43.1,39.2,29.59,WNW,285,0.0,0.0,86,0.00,,,0.00,0,Wunderground v.1.15,2013-02-28 09:10:00,
2013-02-28 04:15:00,43.1,38.9,29.59,WNW,285,0.0,0.0,85,0.00,,,0.00,0,Wunderground v.1.15,2013-02-28 09:15:00,
2013-02-28 04:20:00,43.1,38.9,29.59,WNW,285,0.0,0.0,85,0.00,,,0.00,0,Wunderground v.1.15,2013-02-28 09:20:00,
2013-02-28 04:25:00,43.1,38.9,29.59,WNW,285,0.0,0.0,85,0.00,,,0.00,0,Wunderground v.1.15,2013-02-28 09:25:00,
2013-02-28 04:30:00,43.1,38.9,29.59,WNW,285,0.0,0.0,85,0.00,,,0.00,0,Wunderground v.1.15,2013-02-28 09:30:00,
2013-02-28 04:35:00,43.1,38.9,29.59,WNW,285,0.0,0.0,85,0.00,,,0.00,0,Wunderground v.1.15,2013-02-28 09:35:00,
2013-02-28 04:40:00,43.1,38.9,29.59,WNW,285,0.0,0.0,85,0.00,,,0.00,0,Wunderground v.1.15,2013-02-28 09:40:00,
2013-02-28 04:45:00,43.1,38.9,29.59,WNW,285,0.0,0.0,85,0.00,,,0.00,0,Wunderground v.1.15,2013-02-28 09:45:00,
2013-02-28 04:50:00,43.1,38.9,29.59,WNW,285,0.0,0.0,85,0.00,,,0.00,0,Wunderground v.1.15,2013-02-28 09:50:00,
2013-02-28 04:55:00,43.1,38.9,29.59,WNW,285,0.0,0.0,85,0.00,,,0.00,0,Wunderground v.1.15,2013-02-28 09:55:00,
2013-02-28 05:00:00,43.0,38.8,29.59,WNW,285,0.0,1.0,85,0.00,,,0.00,0,Wunderground v.1.15,2013-02-28 10:00:00,
2013-02-28 05:05:00,43.0,38.8,29.59,WNW,285,0.0,1.0,85,0.00,,,0.00,0,Wunderground v.1.15,2013-02-28 10:05:00,
2013-02-28 05:10:00,42.9,38.7,29.59,WNW,285,0.0,0.0,85,0.00,,,0.00,0,Wunderground v.1.15,2013-02-28 10:10:00,
2013-02-28 05:15:00,42.9,38.7,29.59,WNW,285,0.0,0.0,85,0.00,,,0.00,0,Wunderground v.1.15,2013-02-28 10:15:00,
2013-02-28 05:21:00,42.8,38.6,29.59,WNW,285,0.0,0.0,85,0.00,,,0.00,0,Wunderground v.1.15,2013-02-28 10:21:00,
2013-02-28 05:26:00,42.8,38.6,29.59,WNW,285,0.0,1.0,85,0.00,,,0.00,0,Wunderground v.1.15,2013-02-28 10:26:00,
2013-02-28 05:31:00,42.7,38.5,29.59,WNW,285,0.0,1.0,85,0.00,,,0.00,0,Wunderground v.1.15,2013-02-28 10:31:00,
2013-02-28 05:36:00,42.7,38.5,29.59,WNW,285,0.0,1.0,85,0.00,,,0.00,0,Wunderground v.1.15,2013-02-28 10:36:00,
2013-02-28 05:41:00,42.7,38.5,29.59,WNW,285,0.0,0.0,85,0.00,,,0.00,0,Wunderground v.1.15,2013-02-28 10:41:00,
2013-02-28 05:46:00,42.6,38.4,29.60,WNW,285,0.0,1.0,85,0.00,,,0.00,0,Wunderground v.1.15,2013-02-28 10:46:00,
2013-02-28 05:51:00,42.6,38.4,29.60,WNW,285,0.0,3.0,85,0.00,,,0.00,0,Wunderground v.1.15,2013-02-28 10:51:00,
2013-02-28 05:56:00,42.5,38.3,29.60,WNW,285,0.0,3.0,85,0.00,,,0.00,0,Wunderground v.1.15,2013-02-28 10:56:00,
2013-02-28 06:01:00,42.5,38.3,29.60,WNW,285,0.0,0.0,85,0.00,,,0.00,0,Wunderground v.1.15,2013-02-28 11:01:00,
2013-02-28 06:06:00,42.5,38.3,29.60,WNW,285,0.0,1.0,85,0.00,,,0.00,0,Wunderground v.1.15,2013-02-28 11:06:00,
2013-02-28 06:11:00,42.5,38.3,29.60,WNW,285,0.0,0.0,85,0.00,,,0.00,0,Wunderground v.1.15,2013-02-28 11:11:00,
2013-02-28 06:16:00,42.5,38.3,29.60,WNW,285,0.0,3.0,85,0.00,,,0.00,0,Wunderground v.1.15,2013-02-28 11:16:00,
2013-02-28 06:22:00,42.4,38.2,29.60,WNW,285,0.0,0.0,85,0.00,,,0.00,0,Wunderground v.1.15,2013-02-28 11:22:00,
2013-02-28 06:27:00,42.4,37.9,29.60,WNW,290,0.0,4.0,84,0.00,,,0.00,0,Wunderground v.1.15,2013-02-28 11:27:00,
2013-02-28 06:32:00,42.4,37.9,29.60,WNW,290,0.0,0.0,84,0.00,,,0.00,0,Wunderground v.1.15,2013-02-28 11:32:00,
2013-02-28 06:37:00,42.4,38.2,29.60,WNW,290,0.0,0.0,85,0.00,,,0.00,0,Wunderground v.1.15,2013-02-28 11:37:00,
2013-02-28 06:42:00,42.4,37.9,29.60,WNW,290,0.0,3.0,84,0.00,,,0.00,0,Wunderground v.1.15,2013-02-28 11:42:00,
2013-02-28 06:47:00,42.4,37.9,29.60,WNW,290,0.0,3.0,84,0.00,,,0.00,0,Wunderground v.1.15,2013-02-28 11:47:00,
2013-02-28 06:52:00,42.4,37.9,29.60,WNW,291,0.0,3.0,84,0.00,,,0.00,7,Wunderground v.1.15,2013-02-28 11:52:00,
2013-02-28 06:57:00,42.4,37.9,29.60,WNW,292,0.0,4.0,84,0.00,,,0.00,11,Wunderground v.1.15,2013-02-28 11:57:00,
2013-02-28 07:02:00,42.4,37.9,29.60,WNW,294,1.0,3.0,84,0.00,,,0.00,9,Wunderground v.1.15,2013-02-28 12:02:00,
2013-02-28 07:07:00,42.4,37.9,29.60,WNW,296,0.0,3.0,84,0.00,,,0.00,9,Wunderground v.1.15,2013-02-28 12:07:00,
2013-02-28 07:12:00,42.5,37.7,29.60,WNW,296,1.0,1.0,83,0.00,,,0.00,14,Wunderground v.1.15,2013-02-28 12:12:00,
2013-02-28 07:17:00,42.5,37.7,29.61,WNW,296,0.0,1.0,83,0.00,,,0.00,21,Wunderground v.1.15,2013-02-28 12:17:00,
2013-02-28 07:22:00,42.6,37.8,29.60,WNW,296,0.0,2.0,83,0.00,,,0.00,26,Wunderground v.1.15,2013-02-28 12:22:00,
2013-02-28 07:27:00,42.7,38.2,29.60,WNW,296,0.0,2.0,84,0.00,,,0.00,26,Wunderground v.1.15,2013-02-28 12:27:00,
2013-02-28 07:32:00,42.7,37.9,29.60,WNW,296,0.0,0.0,83,0.00,,,0.00,30,Wunderground v.1.15,2013-02-28 12:32:00,
2013-02-28 07:37:00,42.8,38.0,29.60,WNW,296,0.0,3.0,83,0.00,,,0.00,40,Wunderground v.1.15,2013-02-28 12:37:00,
2013-02-28 07:42:00,42.8,38.3,29.60,WNW,296,0.0,0.0,84,0.00,,,0.00,42,Wunderground v.1.15,2013-02-28 12:42:00,
2013-02-28 07:47:00,42.8,38.0,29.61,WNW,296,0.0,1.0,83,0.00,,,0.00,42,Wunderground v.1.15,2013-02-28 12:47:00,
2013-02-28 07:52:00,42.9,38.4,29.61,WNW,296,0.0,0.0,84,0.00,,,0.00,47,Wunderground v.1.15,2013-02-28 12:52:00,
2013-02-28 07:57:00,42.9,38.4,29.61,WNW,296,0.0,3.0,84,0.00,,,0.00,54,Wunderground v.1.15,2013-02-28 12:57:00,
2013-02-28 08:02:00,43.0,38.5,29.61,WNW,292,0.0,3.0,84,0.00,,,0.00,49,Wunderground v.1.15,2013-02-28 13:02:00,
2013-02-28 08:07:00,43.1,38.6,29.61,West,277,0.0,4.0,84,0.00,,,0.00,54,Wunderground v.1.15,2013-02-28 13:07:00,
2013-02-28 08:12:00,43.2,38.7,29.61,WNW,283,0.0,5.0,84,0.00,,,0.00,54,Wunderground v.1.15,2013-02-28 13:12:00,
2013-02-28 08:17:00,43.2,38.7,29.61,WNW,297,1.0,6.0,84,0.00,,,0.00,54,Wunderground v.1.15,2013-02-28 13:17:00,
2013-02-28 08:22:00,43.3,38.8,29.61,WNW,290,0.0,5.0,84,0.00,,,0.00,51,Wunderground v.1.15,2013-02-28 13:22:00,
2013-02-28 08:27:00,43.3,38.8,29.62,WNW,288,2.0,5.0,84,0.00,,,0.00,58,Wunderground v.1.15,2013-02-28 13:27:00,
2013-02-28 08:32:00,43.3,38.8,29.61,WNW,288,0.0,6.0,84,0.00,,,0.01,74,Wunderground v.1.15,2013-02-28 13:32:00,
2013-02-28 08:38:00,43.3,39.1,29.61,West,280,2.0,6.0,85,0.00,,,0.01,88,Wunderground v.1.15,2013-02-28 13:38:00,
2013-02-28 08:43:00,43.3,39.1,29.61,WNW,282,0.0,4.0,85,0.00,,,0.01,97,Wunderground v.1.15,2013-02-28 13:43:00,
2013-02-28 08:48:00,43.3,39.1,29.61,NW,313,1.0,5.0,85,0.00,,,0.01,105,Wunderground v.1.15,2013-02-28 13:48:00,
2013-02-28 08:53:00,43.4,39.2,29.61,WNW,298,0.0,5.0,85,0.00,,,0.01,107,Wunderground v.1.15,2013-02-28 13:53:00,
2013-02-28 08:58:00,43.4,39.2,29.61,WNW,297,0.0,5.0,85,0.00,,,0.01,116,Wunderground v.1.15,2013-02-28 13:58:00,
2013-02-28 09:03:00,43.4,39.2,29.61,NW,307,2.0,4.0,85,0.00,,,0.01,127,Wunderground v.1.15,2013-02-28 14:03:00,
2013-02-28 09:08:00,43.5,39.6,29.61,WNW,294,0.0,5.0,86,0.00,,,0.01,132,Wunderground v.1.15,2013-02-28 14:08:00,
2013-02-28 09:13:00,43.6,39.7,29.61,NW,311,3.0,4.0,86,0.00,,,0.01,146,Wunderground v.1.15,2013-02-28 14:13:00,
2013-02-28 09:18:00,43.8,39.9,29.60,NNW,339,2.0,4.0,86,0.00,,,0.01,214,Wunderground v.1.15,2013-02-28 14:18:00,
2013-02-28 09:23:00,44.0,40.1,29.60,NW,317,0.0,7.0,86,0.00,,,0.01,387,Wunderground v.1.15,2013-02-28 14:23:00,
2013-02-28 09:28:00,44.4,40.5,29.60,NW,311,0.0,7.0,86,0.00,,,0.01,443,Wunderground v.1.15,2013-02-28 14:28:00,
2013-02-28 09:33:00,45.0,40.8,29.60,NW,323,2.0,5.0,85,0.00,,,0.01,434,Wunderground v.1.15,2013-02-28 14:33:00,
2013-02-28 09:38:00,45.4,40.8,29.60,NW,315,0.0,5.0,84,0.00,,,0.01,359,Wunderground v.1.15,2013-02-28 14:38:00,
2013-02-28 09:43:00,46.1,41.2,29.60,North,350,2.0,5.0,83,0.00,,,0.01,480,Wunderground v.1.15,2013-02-28 14:43:00,
2013-02-28 09:48:00,46.8,41.3,29.59,North,5,3.0,7.0,81,0.00,,,0.01,548,Wunderground v.1.15,2013-02-28 14:48:00,
2013-02-28 09:53:00,47.1,40.9,29.59,NW,307,2.0,8.0,79,0.00,,,0.01,561,Wunderground v.1.15,2013-02-28 14:53:00,
2013-02-28 09:58:00,47.2,40.4,29.59,NW,307,0.0,9.0,77,0.00,,,0.01,323,Wunderground v.1.15,2013-02-28 14:58:00,
2013-02-28 10:03:00,47.3,40.5,29.59,NW,306,0.0,7.0,77,0.00,,,0.01,313,Wunderground v.1.15,2013-02-28 15:03:00,
2013-02-28 10:08:00,47.6,40.7,29.59,NNW,333,0.0,7.0,77,0.00,,,0.01,285,Wunderground v.1.15,2013-02-28 15:08:00,
2013-02-28 10:13:00,47.6,40.4,29.59,WNW,290,0.0,7.0,76,0.00,,,0.01,482,Wunderground v.1.15,2013-02-28 15:13:00,
2013-02-28 10:18:00,47.8,40.3,29.59,WNW,294,5.0,7.0,75,0.00,,,0.01,561,Wunderground v.1.15,2013-02-28 15:18:00,
2013-02-28 10:23:00,48.3,40.7,29.59,NNW,336,0.0,8.0,75,0.00,,,0.01,571,Wunderground v.1.15,2013-02-28 15:23:00,
2013-02-28 10:28:00,48.9,41.0,29.59,WNW,297,2.0,9.0,74,0.00,,,0.01,209,Wunderground v.1.15,2013-02-28 15:28:00,
2013-02-28 10:34:00,49.0,40.7,29.59,NNW,343,3.0,3.0,73,0.00,,,0.01,276,Wunderground v.1.15,2013-02-28 15:34:00,
2013-02-28 10:39:00,48.9,40.3,29.59,NNW,333,7.0,9.0,72,0.00,,,0.01,352,Wunderground v.1.15,2013-02-28 15:39:00,
2013-02-28 10:44:00,48.7,40.1,29.58,NNW,329,1.0,6.0,72,0.00,,,0.01,325,Wunderground v.1.15,2013-02-28 15:44:00,
2013-02-28 10:49:00,48.7,39.7,29.58,NNW,341,0.0,8.0,71,0.00,,,0.01,295,Wunderground v.1.15,2013-02-28 15:49:00,
2013-02-28 10:54:00,48.6,39.6,29.58,NNW,327,3.0,8.0,71,0.00,,,0.01,297,Wunderground v.1.15,2013-02-28 15:54:00,
2013-02-28 10:59:00,48.7,39.7,29.58,NNW,333,0.0,8.0,71,0.00,,,0.01,357,Wunderground v.1.15,2013-02-28 15:59:00,
2013-02-28 11:04:00,48.9,39.9,29.58,NW,321,1.0,8.0,71,0.00,,,0.01,381,Wunderground v.1.15,2013-02-28 16:04:00,
2013-02-28 11:09:00,49.0,39.6,29.57,NNE,15,4.0,10.0,70,0.00,,,0.01,285,Wunderground v.1.15,2013-02-28 16:09:00,
2013-02-28 11:14:00,48.9,39.2,29.57,NW,315,4.0,8.0,69,0.00,,,0.01,501,Wunderground v.1.15,2013-02-28 16:14:00,
2013-02-28 11:19:00,49.2,39.5,29.57,NNW,331,0.0,8.0,69,0.00,,,0.01,661,Wunderground v.1.15,2013-02-28 16:19:00,
2013-02-28 11:24:00,49.8,39.7,29.57,NNW,347,3.0,5.0,68,0.00,,,0.01,879,Wunderground v.1.15,2013-02-28 16:24:00,
2013-02-28 11:29:00,50.1,39.2,29.57,WNW,289,4.0,9.0,66,0.00,,,0.01,283,Wunderground v.1.15,2013-02-28 16:29:00,
2013-02-28 11:34:00,50.0,39.1,29.57,NW,317,1.0,6.0,66,0.00,,,0.01,394,Wunderground v.1.15,2013-02-28 16:34:00,
2013-02-28 11:39:00,50.1,39.2,29.57,NNW,329,2.0,6.0,66,0.00,,,0.01,617,Wunderground v.1.15,2013-02-28 16:39:00,
2013-02-28 11:44:00,50.5,39.2,29.56,NNW,329,0.0,8.0,65,0.00,,,0.01,234,Wunderground v.1.15,2013-02-28 16:44:00,
2013-02-28 11:49:00,50.5,38.8,29.56,WNW,301,0.0,8.0,64,0.00,,,0.01,269,Wunderground v.1.15,2013-02-28 16:49:00,
2013-02-28 11:54:00,50.4,39.1,29.56,North,360,3.0,5.0,65,0.00,,,0.01,397,Wunderground v.1.15,2013-02-28 16:54:00,
2013-02-28 11:59:00,50.5,38.8,29.56,NE,36,0.0,9.0,64,0.00,,,0.01,316,Wunderground v.1.15,2013-02-28 16:59:00,
2013-02-28 12:05:00,50.4,38.3,29.56,NW,304,0.0,6.0,63,0.00,,,0.01,178,Wunderground v.1.15,2013-02-28 17:05:00,
2013-02-28 12:10:00,50.1,38.0,29.55,NNW,329,0.0,2.0,63,0.00,,,0.01,710,Wunderground v.1.15,2013-02-28 17:10:00,
2013-02-28 12:15:00,50.7,38.6,29.55,NNW,333,1.0,5.0,63,0.00,,,0.01,754,Wunderground v.1.15,2013-02-28 17:15:00,
2013-02-28 12:20:00,51.5,38.9,29.55,NW,325,5.0,5.0,62,0.00,,,0.01,810,Wunderground v.1.15,2013-02-28 17:20:00,
2013-02-28 12:25:00,52.1,38.6,29.55,North,360,3.0,7.0,60,0.00,,,0.01,749,Wunderground v.1.15,2013-02-28 17:25:00,
2013-02-28 12:30:00,52.0,38.1,29.55,WNW,300,0.0,3.0,59,0.00,,,0.01,213,Wunderground v.1.15,2013-02-28 17:30:00,
2013-02-28 12:35:00,51.7,37.8,29.55,NW,317,0.0,3.0,59,0.00,,,0.01,160,Wunderground v.1.15,2013-02-28 17:35:00,
2013-02-28 12:40:00,51.3,37.4,29.55,NW,317,0.0,1.0,59,0.00,,,0.01,141,Wunderground v.1.15,2013-02-28 17:40:00,
2013-02-28 12:45:00,51.0,37.6,29.54,NW,317,0.0,1.0,60,0.00,,,0.01,156,Wunderground v.1.15,2013-02-28 17:45:00,
2013-02-28 12:50:00,50.7,37.3,29.54,NNW,327,4.0,4.0,60,0.00,,,0.01,204,Wunderground v.1.15,2013-02-28 17:50:00,
2013-02-28 12:55:00,50.5,37.1,29.54,NW,305,0.0,5.0,60,0.00,,,0.01,290,Wunderground v.1.15,2013-02-28 17:55:00,
2013-02-28 13:00:00,50.5,37.5,29.54,WNW,300,0.0,1.0,61,0.00,,,0.01,190,Wunderground v.1.15,2013-02-28 18:00:00,
2013-02-28 13:05:00,50.5,36.7,29.54,NW,318,0.0,5.0,59,0.00,,,0.01,162,Wunderground v.1.15,2013-02-28 18:05:00,
2013-02-28 13:10:00,50.3,36.5,29.54,WNW,298,2.0,5.0,59,0.00,,,0.01,127,Wunderground v.1.15,2013-02-28 18:10:00,
2013-02-28 13:15:00,50.2,36.4,29.54,WNW,303,0.0,6.0,59,0.00,,,0.01,102,Wunderground v.1.15,2013-02-28 18:15:00,
2013-02-28 13:20:00,50.0,36.7,29.54,WNW,294,1.0,1.0,60,0.00,,,0.01,104,Wunderground v.1.15,2013-02-28 18:20:00,
2013-02-28 13:25:00,49.9,36.1,29.54,NW,324,3.0,9.0,59,0.00,,,0.01,113,Wunderground v.1.15,2013-02-28 18:25:00,
2013-02-28 13:30:00,49.7,35.9,29.54,NW,304,0.0,2.0,59,0.00,,,0.01,151,Wunderground v.1.15,2013-02-28 18:30:00,
2013-02-28 13:35:00,49.5,36.2,29.54,NW,317,3.0,6.0,60,0.00,,,0.01,178,Wunderground v.1.15,2013-02-28 18:35:00,
2013-02-28 13:40:00,49.5,36.2,29.54,West,271,0.0,2.0,60,0.00,,,0.01,178,Wunderground v.1.15,2013-02-28 18:40:00,
2013-02-28 13:46:00,49.5,36.6,29.54,NNW,333,2.0,13.0,61,0.00,,,0.01,174,Wunderground v.1.15,2013-02-28 18:46:00,
2013-02-28 13:51:00,49.5,36.6,29.54,WNW,294,1.0,8.0,61,0.00,,,0.01,183,Wunderground v.1.15,2013-02-28 18:51:00,
2013-02-28 13:56:00,49.4,36.9,29.54,NW,305,6.0,10.0,62,0.00,,,0.01,156,Wunderground v.1.15,2013-02-28 18:56:00,
2013-02-28 14:01:00,49.1,36.6,29.54,NW,323,8.0,8.0,62,0.00,,,0.01,137,Wunderground v.1.15,2013-02-28 19:01:00,
2013-02-28 14:06:00,48.9,36.4,29.54,NW,304,6.0,8.0,62,0.00,,,0.01,116,Wunderground v.1.15,2013-02-28 19:06:00,
2013-02-28 14:11:00,48.7,36.3,29.54,NNW,329,0.0,4.0,62,0.00,,,0.01,97,Wunderground v.1.15,2013-02-28 19:11:00,
2013-02-28 14:16:00,48.5,36.1,29.54,WNW,303,0.0,8.0,62,0.00,,,0.01,90,Wunderground v.1.15,2013-02-28 19:16:00,
2013-02-28 14:21:00,48.4,36.4,29.54,North,350,5.0,7.0,63,0.00,,,0.01,77,Wunderground v.1.15,2013-02-28 19:21:00,
2013-02-28 14:26:00,48.3,35.9,29.54,NW,324,4.0,8.0,62,0.00,,,0.01,69,Wunderground v.1.15,2013-02-28 19:26:00,
2013-02-28 14:31:00,48.2,35.4,29.54,NW,307,1.0,7.0,61,0.00,,,0.01,77,Wunderground v.1.15,2013-02-28 19:31:00,
2013-02-28 14:36:00,48.1,35.7,29.54,WNW,292,2.0,8.0,62,0.00,,,0.01,97,Wunderground v.1.15,2013-02-28 19:36:00,
2013-02-28 14:41:00,48.1,35.3,29.53,NW,323,3.0,6.0,61,0.00,,,0.01,149,Wunderground v.1.15,2013-02-28 19:41:00,
2013-02-28 14:46:00,48.2,35.4,29.53,NNW,348,0.0,7.0,61,0.00,,,0.01,188,Wunderground v.1.15,2013-02-28 19:46:00,
2013-02-28 14:51:00,48.3,35.0,29.53,West,277,4.0,6.0,60,0.00,,,0.01,190,Wunderground v.1.15,2013-02-28 19:51:00,
2013-02-28 14:56:00,48.3,34.6,29.54,NW,309,7.0,12.0,59,0.00,,,0.01,178,Wunderground v.1.15,2013-02-28 19:56:00,
2013-02-28 15:01:00,48.4,34.7,29.54,NW,321,9.0,11.0,59,0.00,,,0.01,144,Wunderground v.1.15,2013-02-28 20:01:00,
2013-02-28 15:06:00,48.4,34.7,29.54,NNW,328,5.0,11.0,59,0.00,,,0.01,121,Wunderground v.1.15,2013-02-28 20:06:00,
2013-02-28 15:11:00,48.2,34.5,29.54,NW,318,3.0,5.0,59,0.00,,,0.01,88,Wunderground v.1.15,2013-02-28 20:11:00,
2013-02-28 15:16:00,48.1,34.9,29.54,NW,320,3.0,11.0,60,0.00,,,0.01,86,Wunderground v.1.15,2013-02-28 20:16:00,
2013-02-28 15:21:00,47.8,35.0,29.54,NW,312,5.0,12.0,61,0.00,,,0.01,95,Wunderground v.1.15,2013-02-28 20:21:00,
2013-02-28 15:26:00,47.6,35.6,29.54,NW,309,7.0,12.0,63,0.00,,,0.01,91,Wunderground v.1.15,2013-02-28 20:26:00,
2013-02-28 15:31:00,47.2,35.6,29.55,NNW,329,4.0,10.0,64,0.00,,,0.01,86,Wunderground v.1.15,2013-02-28 20:31:00,
2013-02-28 15:37:00,47.0,35.8,29.55,NNW,332,3.0,10.0,65,0.00,,,0.01,76,Wunderground v.1.15,2013-02-28 20:37:00,
2013-02-28 15:42:00,46.7,35.6,29.55,NNW,327,7.0,9.0,65,0.00,,,0.01,62,Wunderground v.1.15,2013-02-28 20:42:00,
2013-02-28 15:47:00,46.5,35.4,29.55,NW,305,7.0,13.0,65,0.00,,,0.01,67,Wunderground v.1.15,2013-02-28 20:47:00,
2013-02-28 15:52:00,46.3,35.6,29.55,North,355,1.0,5.0,66,0.00,,,0.01,74,Wunderground v.1.15,2013-02-28 20:52:00,
2013-02-28 15:57:00,46.2,35.5,29.55,North,5,5.0,8.0,66,0.00,,,0.01,77,Wunderground v.1.15,2013-02-28 20:57:00,
2013-02-28 16:02:00,46.1,35.4,29.55,NNW,334,2.0,5.0,66,0.00,,,0.01,74,Wunderground v.1.15,2013-02-28 21:02:00,
2013-02-28 16:07:00,46.0,34.9,29.54,NNW,332,3.0,9.0,65,0.00,,,0.01,69,Wunderground v.1.15,2013-02-28 21:07:00,
2013-02-28 16:12:00,45.9,34.8,29.55,North,5,1.0,12.0,65,0.00,,,0.01,69,Wunderground v.1.15,2013-02-28 21:12:00,
2013-02-28 16:17:00,45.9,34.8,29.54,North,355,1.0,12.0,65,0.00,,,0.01,69,Wunderground v.1.15,2013-02-28 21:17:00,
2013-02-28 16:22:00,45.8,34.7,29.54,NNW,335,0.0,5.0,65,0.00,,,0.01,60,Wunderground v.1.15,2013-02-28 21:22:00,
2013-02-28 16:27:00,45.8,34.7,29.54,NNW,339,8.0,8.0,65,0.00,,,0.01,47,Wunderground v.1.15,2013-02-28 21:27:00,
2013-02-28 16:32:00,45.8,34.7,29.54,NNW,333,0.0,5.0,65,0.00,,,0.01,42,Wunderground v.1.15,2013-02-28 21:32:00,
2013-02-28 16:37:00,45.7,34.6,29.54,NNW,333,1.0,7.0,65,0.00,,,0.01,35,Wunderground v.1.15,2013-02-28 21:37:00,
2013-02-28 16:42:00,45.6,34.5,29.54,WNW,297,2.0,7.0,65,0.00,,,0.01,33,Wunderground v.1.15,2013-02-28 21:42:00,
2013-02-28 16:47:00,45.5,34.4,29.54,North,351,1.0,9.0,65,0.00,,,0.01,32,Wunderground v.1.15,2013-02-28 21:47:00,
2013-02-28 16:52:00,45.5,34.4,29.54,NNW,327,0.0,6.0,65,0.00,,,0.01,30,Wunderground v.1.15,2013-02-28 21:52:00,
2013-02-28 16:57:00,45.5,34.4,29.54,NNW,327,0.0,6.0,65,0.00,,,0.01,30,Wunderground v.1.15,2013-02-28 21:57:00,
2013-02-28 17:02:00,45.4,34.3,29.54,NW,313,5.0,5.0,65,0.00,,,0.01,32,Wunderground v.1.15,2013-02-28 22:02:00,
2013-02-28 17:07:00,45.4,34.3,29.54,NW,313,0.0,5.0,65,0.00,,,0.01,35,Wunderground v.1.15,2013-02-28 22:07:00,
2013-02-28 17:12:00,45.4,34.7,29.54,NW,321,5.0,7.0,66,0.00,,,0.01,32,Wunderground v.1.15,2013-02-28 22:12:00,
2013-02-28 17:17:00,45.3,34.2,29.55,NW,311,4.0,8.0,65,0.00,,,0.01,25,Wunderground v.1.15,2013-02-28 22:17:00,
2013-02-28 17:22:00,45.2,34.1,29.55,WNW,302,0.0,6.0,65,0.00,,,0.01,16,Wunderground v.1.15,2013-02-28 22:22:00,
2013-02-28 17:27:00,45.2,34.1,29.55,West,281,3.0,7.0,65,0.00,,,0.01,12,Wunderground v.1.15,2013-02-28 22:27:00,
2013-02-28 17:32:00,45.1,34.0,29.55,NW,319,6.0,7.0,65,0.00,,,0.01,7,Wunderground v.1.15,2013-02-28 22:32:00,
2013-02-28 17:37:00,44.9,33.5,29.55,NW,307,4.0,8.0,64,0.00,,,0.01,5,Wunderground v.1.15,2013-02-28 22:37:00,
2013-02-28 17:42:00,44.8,33.4,29.55,WNW,302,1.0,7.0,64,0.00,,,0.01,0,Wunderground v.1.15,2013-02-28 22:42:00,
2013-02-28 17:47:00,44.7,33.3,29.56,NW,309,6.0,8.0,64,0.00,,,0.01,0,Wunderground v.1.15,2013-02-28 22:47:00,
2013-02-28 17:52:00,44.7,32.9,29.56,NW,306,2.0,8.0,63,0.00,,,0.01,0,Wunderground v.1.15,2013-02-28 22:52:00,
2013-02-28 17:58:00,44.6,32.8,29.56,NW,305,0.0,8.0,63,0.00,,,0.01,0,Wunderground v.1.15,2013-02-28 22:58:00,
2013-02-28 18:03:00,44.5,32.7,29.56,NW,322,2.0,5.0,63,0.00,,,0.01,0,Wunderground v.1.15,2013-02-28 23:03:00,
2013-02-28 18:08:00,44.4,32.6,29.56,NW,324,0.0,7.0,63,0.00,,,0.01,0,Wunderground v.1.15,2013-02-28 23:08:00,
2013-02-28 18:13:00,44.3,32.5,29.56,NW,305,5.0,5.0,63,0.00,,,0.01,0,Wunderground v.1.15,2013-02-28 23:13:00,
2013-02-28 18:18:00,44.2,32.4,29.57,NNW,333,1.0,5.0,63,0.00,,,0.01,0,Wunderground v.1.15,2013-02-28 23:18:00,
2013-02-28 18:23:00,44.1,32.3,29.57,NW,304,6.0,6.0,63,0.00,,,0.01,0,Wunderground v.1.15,2013-02-28 23:23:00,
2013-02-28 18:28:00,44.0,32.2,29.57,WNW,284,0.0,6.0,63,0.00,,,0.01,0,Wunderground v.1.15,2013-02-28 23:28:00,
2013-02-28 18:33:00,44.0,32.2,29.57,WNW,295,0.0,2.0,63,0.00,,,0.01,0,Wunderground v.1.15,2013-02-28 23:33:00,
2013-02-28 18:38:00,43.9,31.7,29.57,WNW,292,4.0,7.0,62,0.00,,,0.01,0,Wunderground v.1.15,2013-02-28 23:38:00,
2013-02-28 18:43:00,43.8,31.6,29.57,WNW,300,3.0,4.0,62,0.00,,,0.01,0,Wunderground v.1.15,2013-02-28 23:43:00,
2013-02-28 18:48:00,43.7,31.5,29.57,West,281,0.0,4.0,62,0.00,,,0.01,0,Wunderground v.1.15,2013-02-28 23:48:00,
2013-02-28 18:53:00,43.6,31.4,29.58,WNW,300,1.0,4.0,62,0.00,,,0.01,0,Wunderground v.1.15,2013-02-28 23:53:00,
2013-02-28 18:58:00,43.6,31.4,29.57,WNW,287,1.0,4.0,62,0.00,,,0.01,0,Wunderground v.1.15,2013-02-28 23:58:00,
2013-02-28 19:03:00,43.4,31.2,29.58,WNW,303,0.0,6.0,62,0.00,,,0.01,0,Wunderground v.1.15,2013-03-01 00:03:00,
2013-02-28 19:09:00,43.3,31.1,29.58,WNW,293,2.0,7.0,62,0.00,,,0.01,0,Wunderground v.1.15,2013-03-01 00:09:00,
2013-02-28 19:14:00,43.2,31.1,29.58,NW,320,0.0,4.0,62,0.00,,,0.01,0,Wunderground v.1.15,2013-03-01 00:14:00,
2013-02-28 19:19:00,43.1,31.0,29.58,NW,310,1.0,6.0,62,0.00,,,0.01,0,Wunderground v.1.15,2013-03-01 00:19:00,
2013-02-28 19:24:00,43.0,30.9,29.58,NW,306,2.0,2.0,62,0.00,,,0.01,0,Wunderground v.1.15,2013-03-01 00:24:00,
2013-02-28 19:29:00,42.9,30.8,29.58,WNW,291,1.0,5.0,62,0.00,,,0.01,0,Wunderground v.1.15,2013-03-01 00:29:00,
2013-02-28 19:34:00,42.7,30.6,29.59,WNW,293,0.0,3.0,62,0.00,,,0.01,0,Wunderground v.1.15,2013-03-01 00:34:00,
2013-02-28 19:39:00,42.6,30.5,29.59,WNW,303,0.0,6.0,62,0.00,,,0.01,0,Wunderground v.1.15,2013-03-01 00:39:00,
2013-02-28 19:44:00,42.5,30.8,29.59,WNW,292,1.0,3.0,63,0.00,,,0.01,0,Wunderground v.1.15,2013-03-01 00:44:00,
2013-02-28 19:49:00,42.3,30.6,29.59,NW,310,0.0,3.0,63,0.00,,,0.01,0,Wunderground v.1.15,2013-03-01 00:49:00,
2013-02-28 19:54:00,42.2,30.5,29.59,WNW,294,0.0,3.0,63,0.00,,,0.01,0,Wunderground v.1.15,2013-03-01 00:54:00,
2013-02-28 19:59:00,42.1,30.4,29.59,NW,311,1.0,6.0,63,0.00,,,0.01,0,Wunderground v.1.15,2013-03-01 00:59:00,
2013-02-28 20:04:00,41.9,30.2,29.59,WNW,292,3.0,5.0,63,0.00,,,0.01,0,Wunderground v.1.15,2013-03-01 01:04:00,
2013-02-28 20:09:00,41.8,30.5,29.59,WNW,300,1.0,5.0,64,0.00,,,0.01,0,Wunderground v.1.15,2013-03-01 01:09:00,
2013-02-28 20:14:00,41.7,30.4,29.59,WNW,301,0.0,2.0,64,0.00,,,0.01,0,Wunderground v.1.15,2013-03-01 01:14:00,
2013-02-28 20:19:00,41.5,30.2,29.59,WNW,296,0.0,3.0,64,0.00,,,0.01,0,Wunderground v.1.15,2013-03-01 01:19:00,
2013-02-28 20:24:00,41.4,30.1,29.59,WNW,301,0.0,6.0,64,0.00,,,0.01,0,Wunderground v.1.15,2013-03-01 01:24:00,
2013-02-28 20:29:00,41.3,30.4,29.59,WNW,302,0.0,6.0,65,0.00,,,0.01,0,Wunderground v.1.15,2013-03-01 01:29:00,
2013-02-28 20:34:00,41.3,30.4,29.59,WNW,286,1.0,4.0,65,0.00,,,0.01,0,Wunderground v.1.15,2013-03-01 01:34:00,
2013-02-28 20:39:00,41.2,30.3,29.59,WNW,302,0.0,5.0,65,0.00,,,0.01,0,Wunderground v.1.15,2013-03-01 01:39:00,
2013-02-28 20:44:00,41.1,30.6,29.60,WNW,301,3.0,5.0,66,0.00,,,0.01,0,Wunderground v.1.15,2013-03-01 01:44:00,
2013-02-28 20:50:00,41.2,30.7,29.60,WNW,294,2.0,2.0,66,0.00,,,0.01,0,Wunderground v.1.15,2013-03-01 01:50:00,
2013-02-28 20:55:00,41.2,31.1,29.60,NW,315,6.0,8.0,67,0.00,,,0.01,0,Wunderground v.1.15,2013-03-01 01:55:00,
2013-02-28 21:00:00,41.3,31.2,29.60,NW,306,2.0,2.0,67,0.00,,,0.01,0,Wunderground v.1.15,2013-03-01 02:00:00,
2013-02-28 21:05:00,41.4,31.6,29.60,WNW,291,0.0,7.0,68,0.00,,,0.01,0,Wunderground v.1.15,2013-03-01 02:05:00,
2013-02-28 21:10:00,41.5,31.7,29.60,NW,321,2.0,3.0,68,0.00,,,0.01,0,Wunderground v.1.15,2013-03-01 02:10:00,
2013-02-28 21:15:00,41.5,31.7,29.60,NW,317,5.0,12.0,68,0.00,,,0.01,0,Wunderground v.1.15,2013-03-01 02:15:00,
2013-02-28 21:20:00,41.6,31.8,29.60,WNW,293,1.0,4.0,68,0.00,,,0.01,0,Wunderground v.1.15,2013-03-01 02:20:00,
2013-02-28 21:25:00,41.6,31.8,29.60,NW,309,4.0,10.0,68,0.00,,,0.01,0,Wunderground v.1.15,2013-03-01 02:25:00,
2013-02-28 21:30:00,41.6,31.8,29.60,NW,317,0.0,4.0,68,0.00,,,0.01,0,Wunderground v.1.15,2013-03-01 02:30:00,
2013-02-28 21:35:00,41.6,32.2,29.60,NW,313,1.0,11.0,69,0.00,,,0.01,0,Wunderground v.1.15,2013-03-01 02:35:00,
2013-02-28 21:40:00,41.5,32.1,29.61,NNW,331,3.0,5.0,69,0.00,,,0.01,0,Wunderground v.1.15,2013-03-01 02:40:00,
2013-02-28 21:45:00,41.5,32.1,29.61,NW,306,5.0,11.0,69,0.00,,,0.01,0,Wunderground v.1.15,2013-03-01 02:45:00,
2013-02-28 21:50:00,41.4,32.0,29.61,WNW,290,3.0,4.0,69,0.00,,,0.01,0,Wunderground v.1.15,2013-03-01 02:50:00,
2013-02-28 21:55:00,41.3,31.9,29.61,NW,311,5.0,8.0,69,0.00,,,0.01,0,Wunderground v.1.15,2013-03-01 02:55:00,
2013-02-28 22:00:00,41.2,31.8,29.61,WNW,292,0.0,2.0,69,0.00,,,0.01,0,Wunderground v.1.15,2013-03-01 03:00:00,
2013-02-28 22:05:00,41.0,31.6,29.61,NNW,333,8.0,8.0,69,0.00,,,0.01,0,Wunderground v.1.15,2013-03-01 03:05:00,
2013-02-28 22:10:00,40.9,31.9,29.61,NW,326,0.0,3.0,70,0.00,,,0.01,0,Wunderground v.1.15,2013-03-01 03:10:00,
2013-02-28 22:15:00,40.7,31.7,29.61,NW,311,0.0,6.0,70,0.00,,,0.01,0,Wunderground v.1.15,2013-03-01 03:15:00,
2013-02-28 22:20:00,40.6,31.6,29.61,NW,306,7.0,8.0,70,0.00,,,0.01,0,Wunderground v.1.15,2013-03-01 03:20:00,
2013-02-28 22:25:00,40.4,31.7,29.61,WNW,282,0.0,12.0,71,0.00,,,0.01,0,Wunderground v.1.15,2013-03-01 03:25:00,
2013-02-28 22:30:00,40.2,31.5,29.60,WNW,295,8.0,12.0,71,0.00,,,0.01,0,Wunderground v.1.15,2013-03-01 03:30:00,
2013-02-28 22:35:00,40.1,31.8,29.60,NW,321,6.0,12.0,72,0.00,,,0.01,0,Wunderground v.1.15,2013-03-01 03:35:00,
2013-02-28 22:40:00,40.0,31.7,29.60,NW,308,0.0,5.0,72,0.00,,,0.01,0,Wunderground v.1.15,2013-03-01 03:40:00,
2013-02-28 22:46:00,39.8,31.8,29.60,NW,309,6.0,6.0,73,0.00,,,0.01,0,Wunderground v.1.15,2013-03-01 03:46:00,
2013-02-28 22:51:00,39.7,31.8,29.60,WNW,298,2.0,6.0,73,0.00,,,0.01,0,Wunderground v.1.15,2013-03-01 03:51:00,
2013-02-28 22:56:00,39.7,31.8,29.60,WNW,301,4.0,8.0,73,0.00,,,0.01,0,Wunderground v.1.15,2013-03-01 03:56:00,
2013-02-28 23:01:00,39.5,31.6,29.60,NW,313,0.0,6.0,73,0.00,,,0.01,0,Wunderground v.1.15,2013-03-01 04:01:00,
2013-02-28 23:06:00,39.4,31.8,29.60,WNW,287,5.0,10.0,74,0.00,,,0.01,0,Wunderground v.1.15,2013-03-01 04:06:00,
2013-02-28 23:11:00,39.3,31.7,29.60,WNW,290,0.0,10.0,74,0.00,,,0.01,0,Wunderground v.1.15,2013-03-01 04:11:00,
2013-02-28 23:16:00,39.2,31.9,29.60,NW,323,4.0,13.0,75,0.00,,,0.01,0,Wunderground v.1.15,2013-03-01 04:16:00,
2013-02-28 23:21:00,39.1,31.8,29.60,NW,311,4.0,8.0,75,0.00,,,0.01,0,Wunderground v.1.15,2013-03-01 04:21:00,
2013-02-28 23:26:00,39.0,32.1,29.60,NW,313,5.0,9.0,76,0.00,,,0.01,0,Wunderground v.1.15,2013-03-01 04:26:00,
2013-02-28 23:31:00,38.8,31.9,29.60,NW,310,7.0,7.0,76,0.00,,,0.01,0,Wunderground v.1.15,2013-03-01 04:31:00,
2013-02-28 23:36:00,38.8,31.9,29.60,NW,311,3.0,11.0,76,0.00,,,0.01,0,Wunderground v.1.15,2013-03-01 04:36:00,
2013-02-28 23:41:00,38.6,32.0,29.60,NW,317,7.0,9.0,77,0.00,,,0.01,0,Wunderground v.1.15,2013-03-01 04:41:00,
2013-02-28 23:46:00,38.5,31.9,29.60,NW,323,0.0,9.0,77,0.00,,,0.01,0,Wunderground v.1.15,2013-03-01 04:46:00,
2013-02-28 23:51:00,38.4,32.1,29.60,NW,317,2.0,6.0,78,0.00,,,0.01,0,Wunderground v.1.15,2013-03-01 04:51:00,
2013-02-28 23:56:00,38.3,32.0,29.60,NNW,336,0.0,8.0,78,0.00,,,0.01,0,Wunderground v.1.15,2013-03-01 04:56:00,